This is the latest recevied weather packets stored in our database for station/object AA4XD. If no packets are shown the sender has not sent any weather packets the latest 10 day(s).
| Time | Temp. | Humidity | Pressure | Rain* | Wind** | Luminosity | Snow |
|---|---|---|---|---|---|---|---|
| 1777638369 | 21.11° C | 89% | 1011.3 hPa | 0 mm | - | 105 W/m² | - |
| 1777638064 | 21.11° C | 89% | 1011.3 hPa | 0 mm | - | 86 W/m² | - |
| 1777637761 | 20.56° C | 91% | 1011.3 hPa | 0 mm | - | 79 W/m² | - |
| 1777637457 | 20.56° C | 91% | 1011.3 hPa | 0 mm | - | 75 W/m² | - |
| 1777637155 | 20.56° C | 92% | 1011.3 hPa | 0 mm | - | 56 W/m² | - |
| 1777636851 | 20.56° C | 92% | 1011.2 hPa | 0 mm | - | 46 W/m² | - |
| 1777636547 | 20° C | 92% | 1011.3 hPa | 0 mm | - | 44 W/m² | - |
| 1777636243 | 20° C | 93% | 1011.3 hPa | 0 mm | - | 26 W/m² | - |
| 1777635943 | 20° C | 93% | 1011.1 hPa | 0 mm | - | 24 W/m² | - |
| 1777635639 | 20° C | 93% | 1011.1 hPa | 0 mm | - | 24 W/m² | - |
| 1777635336 | 20° C | 93% | 1010.8 hPa | 0 mm | - | 27 W/m² | - |
| 1777635033 | 20° C | 93% | 1011.1 hPa | 0 mm | - | 26 W/m² | - |
| 1777634729 | 20° C | 94% | 1010.9 hPa | 0 mm | - | 26 W/m² | - |
| 1777634427 | 20° C | 94% | 1011 hPa | 0 mm | - | 20 W/m² | - |
| 1777634123 | 20° C | 93% | 1010.6 hPa | 0 mm | - | 15 W/m² | - |
| 1777633820 | 20° C | 93% | 1010.6 hPa | 0 mm | - | 12 W/m² | - |
| 1777633518 | 20° C | 93% | 1010.6 hPa | 0 mm | - | 10 W/m² | - |
| 1777633216 | 20° C | 94% | 1010.7 hPa | 0 mm | - | 6 W/m² | - |
| 1777632913 | 20° C | 94% | 1010.4 hPa | 0 mm | - | 4 W/m² | - |
| 1777632609 | 20° C | 94% | 1010.3 hPa | 0 mm | - | 2 W/m² | - |
| 1777632305 | 20° C | 93% | 1010.3 hPa | 0 mm | - | 1 W/m² | - |
| 1777632002 | 20° C | 94% | 1010.1 hPa | 0 mm | - | 0 W/m² | - |
| 1777631701 | 20° C | 93% | 1010.3 hPa | 0 mm | - | 0 W/m² | - |
| 1777631397 | 20° C | 94% | 1010.2 hPa | 0 mm | - | 0 W/m² | - |
| 1777631094 | 20° C | 93% | 1010.3 hPa | 0 mm | - | 0 W/m² | - |
* Rain latest hour (hover to see other rain measurements)
** Current wind speed in m/s (hover to see current wind gust speed)